Location: Boiro
(42.6475°N, 8.8834°W)
Time: 15:43:03
(UTC+01:00)

Explorer 11/Cluster Stage 4 - Pass Details

Date: 05 December 2021
Orbit: 467 x 1255 km, 28.8° (Epoch: 21 January)

Event Time Altitude Azimuth Distance (km) Brightness Sun altitude
Rises 02:19:28 0° 209° (SSW) 3,229 - -66.9°
Reaches altitude 10° 02:23:10 10° 182° (S) 2,489 - -66.5°
Maximum altitude 02:25:57 13° 155° (SSE) 2,382 - -66.2°
Drops below altitude 10° 02:28:56 10° 128° (SE) 2,757 - -65.9°
Sets 02:33:30 0° 104° (ESE) 3,893 - -65.3°
